Location: Woodhurst
(52.3667°N, 0.0667°W)
Time: 07:05:23
(UTC+00:00)

SL-08 R/B - Pass Details

Date: 19 May 2025
Orbit: 667 x 731 km, 98.5° (Epoch: 18 June)

Event Time Altitude Azimuth Distance (km) Brightness Sun altitude
Rises 20:27:51 0° 12° (NNE) 3,167 7.1 -4.7°
Reaches altitude 10° 20:30:12 10° 7° (N) 2,237 6.4 -4.9°
Maximum altitude 20:34:57 52° 293° (WNW) 903 4.4 -5.4°
Drops below altitude 10° 20:39:37 10° 218° (SW) 2,194 5.8 -6.0°
Sets 20:41:54 0° 213° (SSW) 3,101 6.5 -6.2°
